Temp
76 79 77 77 77 77 76 75 76 76 77 78 76 78 76 75 75 73 71 72 73 71 72 73 71 75 71 72 71 71 71 71
77 74 74 77 78 77 77 77 76 76 76 77 77 76 75 74 75 71 71 70 70 70 71 70 69 69 68 68 68 70 70 73
76 78 78 81 77 78 77 77 77 77 75 75 75 73 73 73 72 72 71 71 70 70 70 69 68 67 68 68 69 70 71 73
74 75 73 77 79 78 78 78 79 76 75 74 74 73 73 72 73 73 72 73 72 72 70 70 68 70 69 70 70 70 71 75
74 75 74 75 79 81 77 77 79 76 76 75 75 75 74 73 73 73 74 73 73 73 72 70 71 71 71 70 71 72 73 77
75 75 75 75 78 79 78 81 79 78 77 73 73 76 75 75 74 73 74 74 75 73 72 72 71 71 72 73 74 71 69 71
73 76 75 73 76 77 73 72 75 77 76 71 69 72 75 77 76 74 75 75 75 75 74 72 72 72 75 75 70 70 68 68
73 74 75 72 73 77 75 72 71 72 71 70 69 69 71 78 77 76 75 75 75 75 72 71 72 71 69 70 70 69 68 68
71 72 72 71 70 72 74 72 71 70 70 70 69 68 69 76 78 77 76 76 74 72 70 71 71 70 69 70 68 68 66 65
71 71 67 70 69 71 74 73 71 71 70 71 70 71 70 77 79 76 77 77 74 72 71 70 70 69 69 69 68 66 64 63
68 71 69 68 68 69 73 74 72 71 72 71 72 72 71 73 77 76 76 77 75 73 72 70 70 69 68 67 67 65 62 62
69 70 70 67 71 69 74 74 72 71 72 69 71 73 72 76 77 79 77 76 74 73 72 71 70 67 66 66 66 64 63 61
70 72 70 75 73 69 74 74 72 73 73 75 73 74 78 73 72 76 76 72 74 73 71 69 67 67 64 64 64 63 62 60
64 68 70 68 69 66 68 72 71 73 73 74 74 75 72 69 70 69 71 73 71 71 70 68 66 65 64 63 62 61 60 58
59 60 63 66 67 67 65 72 72 72 73 74 73 75 71 71 70 69 69 70 69 68 69 67 65 64 64 62 62 60 59 59
56 59 60 63 70 69 66 70 72 73 73 73 73 73 71 71 71 70 69 72 70 68 67 66 65 64 63 63 62 60 59 59
57 60 61 62 68 69 66 71 73 74 75 73 72 71 71 70 71 71 70 71 69 67 66 65 64 64 63 62 61 59 59 57
55 59 60 64 64 71 72 69 74 76 74 73 73 70 72 71 71 70 70 69 68 67 66 65 63 63 62 61 59 58 56 55
55 60 62 64 66 68 66 66 71 72 73 74 73 71 71 71 70 71 69 68 67 67 65 64 62 61 60 59 57 56 53 51
54 57 60 62 60 65 66 64 69 71 74 74 71 70 71 70 70 69 68 66 66 66 65 63 62 61 60 59 57 54 52 49
MSLP
1005.03 1004.78 1003.23 1003.24 1003.66 1004.67 1005.42 1006.07 1006.66 1006.31 1007.45 1008.25 1009.11 1009.46 1009.89 1010.22 1010.61 1010.89 1011.29 1011.72 1012.01 1012.32 1012.51 1012.52 1012.77 1012.95 1013.11 1013.12 1013.28 1013.35 1013.28 1013.39
1003.91 1005.01 1005.43 1004.64 1004.06 1003.76 1004.37 1005.30 1005.71 1006.22 1006.89 1007.65 1008.62 1009.32 1009.66 1010.03 1010.36 1010.85 1011.20 1011.68 1012.04 1012.20 1012.39 1012.52 1012.70 1012.84 1013.16 1013.23 1013.29 1013.31 1013.25 1013.18
1003.56 1003.43 1004.39 1004.13 1004.44 1003.60 1003.88 1004.29 1005.01 1005.29 1006.28 1007.26 1008.09 1008.86 1009.36 1009.66 1010.05 1010.58 1010.98 1011.46 1011.98 1011.97 1012.16 1012.35 1012.51 1012.71 1012.90 1013.04 1013.09 1013.23 1013.14 1012.93
1003.53 1002.99 1003.52 1003.83 1004.04 1004.43 1003.59 1003.79 1004.08 1004.66 1005.42 1006.02 1007.23 1008.31 1008.86 1009.47 1009.87 1010.28 1010.70 1010.88 1011.48 1011.72 1012.03 1012.23 1012.41 1012.49 1012.58 1012.62 1012.88 1013.05 1012.96 1012.88
1002.96 1002.79 1002.46 1003.34 1003.12 1003.19 1004.25 1003.83 1003.91 1004.53 1004.96 1005.59 1006.26 1007.42 1008.38 1009.11 1009.40 1009.82 1010.11 1010.50 1010.82 1011.20 1011.56 1011.78 1011.93 1012.21 1012.35 1012.48 1012.73 1012.67 1012.84 1012.72
1001.99 1002.11 1002.14 1002.17 1002.46 1002.65 1003.08 1003.87 1003.71 1004.14 1004.74 1005.49 1006.25 1006.61 1007.52 1008.67 1009.11 1009.63 1010.05 1010.32 1010.33 1010.69 1011.15 1011.45 1011.40 1011.78 1012.13 1012.41 1012.48 1012.69 1012.95 1012.74
1001.49 1001.33 1001.39 1001.40 1001.60 1002.04 1002.96 1003.91 1004.31 1004.60 1005.45 1006.27 1006.13 1006.89 1007.26 1007.56 1008.36 1009.01 1009.66 1010.02 1010.30 1010.35 1010.69 1011.02 1011.07 1011.44 1011.80 1012.08 1012.22 1012.45 1012.98 1013.16
1001.08 1001.03 1001.08 1001.14 1001.30 1001.39 1002.27 1003.32 1004.50 1005.06 1005.32 1006.36 1007.15 1006.87 1006.95 1007.22 1007.60 1008.55 1008.92 1009.31 1009.76 1010.14 1010.34 1010.67 1010.85 1011.32 1011.79 1011.95 1011.92 1012.57 1013.05 1013.27
1000.70 1000.33 1000.48 1000.76 1001.41 1001.63 1002.13 1002.81 1003.99 1005.12 1005.30 1006.02 1007.17 1007.40 1007.24 1007.10 1007.38 1007.81 1008.48 1008.93 1009.10 1009.62 1009.92 1010.58 1010.84 1011.17 1011.40 1011.58 1012.23 1012.84 1013.40 1013.58
1000.21 999.82 1000.06 1000.42 1001.12 1001.44 1002.08 1002.37 1003.19 1004.17 1005.08 1004.78 1006.25 1006.60 1006.45 1006.66 1007.16 1007.49 1007.81 1008.44 1008.87 1009.22 1009.52 1010.20 1010.65 1011.19 1011.43 1011.70 1012.19 1013.11 1013.74 1013.78
1000.27 999.89 999.43 999.86 1000.44 1000.93 1001.89 1002.21 1002.55 1003.37 1003.94 1004.50 1003.87 1004.71 1005.88 1006.55 1006.48 1007.09 1007.53 1007.80 1008.48 1008.58 1009.30 1010.01 1010.49 1010.87 1011.42 1011.79 1012.22 1013.03 1013.91 1014.07
1000.02 999.83 999.57 998.94 999.13 1000.03 1000.50 1001.71 1002.06 1002.53 1003.15 1004.52 1004.35 1003.72 1004.08 1005.44 1005.28 1006.35 1007.21 1007.77 1007.99 1008.32 1009.21 1009.97 1010.42 1010.87 1011.48 1012.00 1012.57 1013.06 1013.47 1014.37
1000.20 999.73 999.04 998.45 998.15 999.21 999.40 1000.34 1001.34 1001.55 1001.94 1002.24 1003.49 1003.91 1003.50 1003.99 1005.11 1006.07 1007.02 1007.36 1007.72 1008.23 1008.92 1010.03 1010.57 1011.07 1011.74 1012.22 1012.95 1013.49 1013.61 1014.35
1000.30 999.81 999.55 999.08 998.39 998.19 998.72 999.51 1000.62 1001.00 1000.91 1001.50 1001.78 1003.08 1003.14 1003.97 1004.89 1006.00 1006.60 1006.70 1007.64 1008.28 1008.86 1009.97 1010.65 1011.25 1012.03 1012.64 1013.32 1013.69 1014.14 1014.61
1000.86 1000.27 999.80 999.24 998.86 998.28 998.60 998.55 999.00 999.94 1000.62 1000.76 1000.70 1001.79 1002.78 1002.86 1003.83 1005.09 1006.10 1006.67 1007.64 1008.22 1008.86 1010.00 1010.73 1011.39 1012.32 1012.99 1013.71 1014.13 1014.52 1015.08
1000.88 1000.52 1000.11 999.11 998.43 997.84 997.80 997.63 997.77 998.80 999.67 999.93 1000.84 1000.72 1002.14 1002.75 1003.13 1004.18 1005.42 1006.11 1007.19 1008.17 1009.09 1009.97 1010.76 1011.65 1012.61 1013.26 1014.03 1014.61 1015.06 1015.61
1000.44 1000.23 999.53 998.91 997.87 997.19 996.77 996.59 996.73 997.30 998.38 998.88 999.92 1000.64 1001.28 1002.17 1002.78 1003.49 1004.70 1005.75 1007.14 1008.31 1009.01 1009.81 1010.96 1012.14 1012.81 1013.46 1014.30 1014.93 1015.55 1016.06
1000.83 1000.05 999.04 997.99 997.19 996.45 995.54 995.80 995.58 996.13 997.26 998.14 999.33 1000.47 1000.72 1001.34 1002.42 1003.41 1004.29 1005.39 1006.97 1007.99 1008.84 1009.90 1011.34 1012.58 1013.15 1013.76 1014.66 1015.38 1015.88 1016.60
1000.44 999.60 998.48 997.67 996.86 995.74 995.37 995.22 994.88 995.26 996.08 997.34 998.37 999.67 1000.42 1000.99 1002.24 1003.14 1004.02 1005.13 1006.68 1007.86 1008.78 1010.40 1011.73 1012.84 1013.38 1014.06 1015.02 1015.69 1016.47 1017.13
1000.16 999.38 998.36 997.28 996.88 996.12 994.84 994.66 994.83 995.05 995.27 996.54 997.75 998.87 999.86 1000.91 1002.01 1003.18 1002.09 1004.58 1006.48 1007.60 1008.79 1010.56 1011.94 1013.01 1013.59 1014.29 1015.15 1016.20 1016.83 1017.57
Wind_Speed
4 6 22 24 21 16 17 16 14 18 13 10 6 7 7 8 12 9 6 6 5 4 3 4 4 7 3 4 3 3 4 3
9 2 5 10 19 20 19 18 18 16 11 10 11 8 9 7 10 8 7 5 4 4 4 4 4 3 5 4 3 4 5 5
9 7 8 14 14 18 20 20 19 16 16 11 11 9 8 8 8 9 6 6 6 5 5 4 4 4 4 4 4 4 5 5
5 8 4 10 11 11 18 21 19 18 16 17 12 9 9 8 8 9 9 7 7 6 5 5 4 4 4 4 4 4 5 5
9 8 8 11 9 16 16 17 17 18 17 15 13 11 9 9 9 11 12 8 9 8 6 5 6 5 6 4 4 4 4 4
10 8 9 8 7 14 17 14 16 18 15 13 11 12 11 9 8 8 11 10 10 8 5 6 5 4 5 4 5 3 3 2
12 10 9 7 8 11 11 8 11 12 9 3 8 9 10 11 9 8 12 10 9 9 7 5 6 5 5 5 3 3 3 1
10 9 7 6 7 13 15 9 8 7 8 3 2 5 7 10 10 9 12 10 8 10 6 6 5 5 4 3 5 3 3 2
8 7 4 4 5 9 15 16 12 8 9 8 2 6 4 7 8 13 12 11 9 8 5 5 6 8 6 6 4 5 3 3
10 9 4 6 7 9 14 18 17 14 10 8 6 2 4 8 8 10 13 12 9 8 7 6 6 5 6 5 5 3 2 2
10 10 10 7 4 11 14 19 20 17 19 10 9 12 2 5 10 9 11 14 11 9 9 7 7 5 5 5 5 6 3 3
11 11 12 9 9 10 15 18 22 20 21 14 15 16 13 9 10 10 11 12 11 10 9 8 8 4 6 4 4 3 4 4
15 16 12 18 11 6 11 19 20 22 22 23 17 16 12 6 8 14 14 9 11 11 11 8 7 5 5 7 6 5 3 4
9 10 9 10 11 3 9 16 18 22 24 23 23 21 10 11 10 11 10 9 8 10 12 9 7 8 8 7 7 8 7 6
5 9 10 9 10 12 9 16 20 21 23 24 24 19 15 19 17 12 13 10 8 10 13 10 8 9 9 8 8 8 6 6
5 9 9 10 11 14 10 14 17 21 21 23 19 22 12 12 17 15 12 12 11 12 11 12 12 12 10 10 8 7 8 8
10 12 14 12 10 12 11 15 18 21 25 20 16 14 16 14 15 16 12 12 11 13 14 14 13 12 12 11 8 9 9 8
9 11 14 14 10 10 12 14 19 19 22 19 17 15 17 17 15 17 17 15 17 16 15 16 14 12 11 12 10 9 11 8
9 12 14 15 14 8 9 9 16 18 19 18 19 17 17 17 16 16 18 18 18 17 18 16 14 13 12 13 11 12 13 11
9 11 14 17 9 9 4 8 11 14 16 20 17 20 19 18 17 17 20 19 17 19 18 17 14 13 13 14 14 12 12 11
Wind_Direction
36 244 169 178 178 168 174 167 169 158 160 166 161 169 166 162 165 161 153 152 165 158 160 169 166 188 198 198 217 236 244 267
310 23 222 198 180 177 171 174 168 164 155 161 169 170 171 167 171 162 159 160 165 166 172 175 179 189 200 201 212 231 249 252
287 266 139 194 205 180 181 172 173 162 158 161 167 172 168 169 166 173 166 163 175 174 183 178 196 187 197 203 217 212 239 243
248 293 111 181 201 221 185 181 174 163 168 163 163 161 168 165 170 180 180 170 179 188 179 191 205 199 196 199 208 231 239 215
255 239 267 167 212 200 201 189 174 172 171 163 159 160 164 170 177 181 185 180 186 188 187 182 206 200 197 205 203 231 243 253
260 242 249 181 176 189 188 193 179 175 170 166 169 167 163 172 178 178 193 192 187 188 190 193 198 193 193 202 191 186 169 60
263 258 238 212 170 178 173 196 180 176 157 155 164 170 170 170 173 176 192 202 192 189 197 195 192 179 182 169 149 146 100 107
262 273 283 249 187 173 168 160 169 149 115 126 235 180 176 177 172 182 184 199 192 191 184 176 168 129 165 152 124 81 128 147
247 274 286 335 194 169 173 155 153 156 147 139 174 210 207 183 182 176 181 195 191 174 162 162 153 149 161 139 100 111 52 32
279 283 249 270 165 174 177 170 155 159 168 157 165 209 208 189 185 178 183 189 180 167 156 158 141 134 145 134 126 102 80 40
270 282 276 262 198 169 179 183 166 165 170 186 181 164 151 178 184 182 186 181 175 156 156 150 149 141 142 139 131 121 142 34
255 255 265 260 250 174 175 187 178 171 172 184 195 188 180 188 178 180 180 178 166 152 146 148 146 125 126 121 108 129 115 119
260 263 254 264 257 194 191 182 190 182 183 188 190 212 197 152 162 168 179 163 159 154 141 138 129 121 102 111 102 97 94 115
323 304 288 277 284 210 183 183 195 190 182 192 191 205 169 152 158 172 171 161 151 149 137 133 124 114 111 103 101 99 96 86
304 313 313 279 255 254 198 190 191 198 195 194 190 195 179 165 162 167 171 157 159 154 139 135 123 114 110 111 105 98 93 95
285 289 278 290 269 249 196 199 194 193 195 195 202 179 176 174 169 165 176 168 156 149 134 126 120 118 115 111 107 103 100 98
320 300 290 282 280 251 203 203 200 192 202 193 181 181 167 171 168 164 164 155 145 142 134 125 120 122 123 118 112 106 101 95
280 292 289 296 295 252 237 201 199 194 195 192 179 176 176 167 165 163 165 151 148 141 134 124 124 125 118 115 108 106 97 86
286 301 307 305 308 248 240 235 205 196 194 189 181 178 175 164 166 165 159 148 144 140 130 127 128 125 121 114 106 104 96 91
282 290 307 307 298 281 264 232 199 202 193 184 182 171 168 166 164 161 148 140 145 133 129 128 127 126 122 118 111 106 102 95